This demonstration page uses our WeatherBlox Daily Observations layout. Learn more.

Left ArrowRight Arrow

Hourly Observations for May 1, 2019

Temp ( °F °C ) Dew Point ( °F °C ) Humidity (%) Winds ( mph kmh ) Pressure ( in mb ) Visibility ( mi km ) Precip ( " mm )
6:30 am 06:30 Mostly Clear 66 19 55 13 68 68 S 14 22 29.96 1014 10 16 N/A
6:45 am 06:45 Mostly Sunny 66 19 55 13 68 68 S 14 22 29.96 1014 10 16 N/A
7:45 am 07:45 Mostly Sunny 68 20 57 14 69 69 S 18 30 29.97 1015 10 16 N/A
8:45 am 08:45 Mostly Sunny 68 20 57 14 69 69 S 18 30 29.99 1016 10 16 N/A
9:45 am 09:45 Cloudy 70 21 59 15 69 69 SSW 18 30 29.99 1016 10 16 N/A
10:45 am 10:45 Cloudy 72 22 59 15 65 65 S 16 26 29.98 1015 10 16 N/A
11:45 am 11:45 Partly Cloudy 73 23 59 15 61 61 S 21 33 29.97 1015 10 16 N/A
12:45 pm 12:45 Partly Cloudy 77 25 59 15 54 54 SSW 25 41 29.96 1015 10 16 N/A
1:45 pm 13:45 Mostly Cloudy 77 25 57 14 51 51 SSW 23 37 29.97 1015 10 16 N/A
2:54 pm 14:54 Mostly Cloudy 77 25 57 14 51 51 SW 16 26 29.99 1016 10 16 N/A
3:33 pm 15:33 Mostly Cloudy with Light Rain 75 24 59 15 57 57 W 20 31 30.00 1016 3 5 N/A
3:38 pm 15:38 Cloudy with Light Rain 73 23 61 16 65 65 WSW 20 31 30.02 1017 4 6 N/A
3:42 pm 15:42 Cloudy with Light Rain 68 20 63 17 83 83 SSW 9 15 30.01 1016 2 2 N/A
3:54 pm 15:54 Cloudy 70 21 63 17 78 78 SSW 6 9 30.00 1016 7 11 N/A
4:51 pm 16:51 Mostly Cloudy 72 22 64 18 78 78 S 6 9 30.00 1016 10 16 N/A
5:52 pm 17:52 Cloudy 68 20 61 16 78 78 W 6 9 30.03 1017 10 16 N/A
6:49 pm 18:49 Cloudy 66 19 61 16 83 83 SSE 7 11 30.05 1017 10 16 N/A
7:47 pm 19:47 Cloudy 64 18 61 16 88 88 Calm 30.05 1018 10 16 N/A
8:47 pm 20:47 Cloudy with Light Rain 64 18 61 16 88 88 WNW 3 6 30.07 1018 5 8 N/A
9:51 pm 21:51 Cloudy with Light Rain 63 17 59 15 88 88 SE 5 7 30.09 1019 5 8 N/A

Powered by AerisWeather